Venice Marco Polo Airport

Jump to: basic info | weather | frequencies | runways | comments

Related pages: nearby airports | nearby navaids | notams | map

Basic information (top)

Codes: VCE LIPZ
Location: lon 45.505299, lat 12.351900, elev 7 ft / 2 m msl
Status: large_airport
Scheduled airline service: yes
Links: Wikipedia Mobile

Weather (top)

Current conditions (rec'd 2015/01/31 18:50Z):

LIPZ 311850Z 02006KT CAVOK 06/01 Q0988

Airport forecast (rec'd 2015/01/31 18:00Z):

TAF LIPZ 311700Z 3118/0124 02008KT 9999 SCT040 
      TEMPO 3118/3124 SHRA 
      TEMPO 0109/0118 SHRA

Frequencies (top)

Verify before use: may be inaccurate or out of date.

APP: 118.9 MHz (APP)
ATIS: 122.225 MHz (ATIS)
GND: 121.7 MHz (GND)
TWR: 120.2 MHz (TWR)

Runways (top)

04L/22R: 9,121 x 148 ft (2,780 x 45 m) — paved — lighted — threshold 04L displaced 308 ft (94 m)

04R/22L: 10,827 x 148 ft (3,300 x 45 m) — paved — lighted

Latest comments (top)

Not recomended for general aviation -smal plane: landing for less than 1 ton MTOW 2 ... [read]

flight cancellation dublin: Trying to find reason for today flight ... [read]

More... (top)

See also NOTAMs and nearby airports and navaids, or visit the Venice Marco Polo Airport page at the main OurAirports website..